User: anonymous   Login
Location: Unspecified
(0.0000°N, 0.0000°E)
Time: 13:48:59
(UTC+00:00)
Language:

Nadezhda 3 - Orbit

View from above orbital plane
View from above orbital plane
View from above satellite
View from above satellite

Ground track
Ground track

The orbit data is extracted from the following two-line orbital elements,

1 21152U 91019A   17114.90052556 +.00000036 +00000-0 +22067-4 0  9997
2 21152 082.9257 260.8051 0042073 022.9800 086.7616 13.74217772309350
Epoch (UTC): 24 April 2017 21:36:45
Eccentricity: 0.0042073
inclination: 82.9257°
perigee height: 953 km
apogee height: 1015 km
right ascension of ascending node: 260.8051°
argument of perigee: 22.9800°
revolutions per day: 13.74217772
mean anomaly at epoch: 86.7616°
orbit number at epoch: 30935

The dashed part of the orbit path shows where the satellite is in the earth's shadow,  

DLR